Weather History for Melbourne, FL

Change the Weather History Date:

Wednesday, March 20, 2013

  Actual Average Record
Temperature  
Mean Temperature 69 °F 66 °F  
Max Temperature 79 °F 77 °F 92 °F (1977)
Min Temperature 59 °F 56 °F 38 °F (1965)
Degree Days  
Heating Degree Days 0 2  
Month to date heating degree days 125 54  
Since 1 July heating degree days 409 543  
Cooling Degree Days 4 3  
Month to date cooling degree days 19 59  
Year to date cooling degree days 225 157  
Growing Degree Days 21 (Base 50)    
Moisture  
Dew Point 63 °F    
Average Humidity 79    
Maximum Humidity 100    
Minimum Humidity 58    
Precipitation  
Precipitation 0.00 in 0.12 in 0.90 in (1954)
Month to date precipitation 0.10 2.14  
Year to date precipitation 2.76 6.94  
Sea Level Pressure  
Sea Level Pressure 29.90 in    
Wind  
Wind Speed 7 mph (WSW)    
Max Wind Speed 22 mph    
Max Gust Speed 25 mph    
Visibility 10 miles    
Events      
T = Trace of Precipitation, MM = Missing Value Source: NWS Daily Summary

Daily Weather History Graph

Daily Weather History Graph

Search for Another Location

Airport:

Trip Planner

Search our weather history database for the weather conditions in past years. The results will help you decide how hot, cold, wet, or windy it might be!

Date:

Astronomy

Mar. 20, 2013 Rise Set
Actual Time 7:26 AM EDT 7:34 PM EDT
Civil Twilight 7:02 AM EDT 7:57 PM EDT
Nautical Twilight 6:35 AM EDT 8:24 PM EDT
Astronomical Twilight 6:08 AM EDT 8:52 PM EDT
Moon 1:34 PM EDT (3/20) 2:37 AM EDT (3/20)
Length of Visible Light 12h 54m
Length of Day
12h 07m
First Quarter, 59% of the Moon is Illuminated
Mar 20
First Quarter
Mar 27
Full
Apr 3
Last Quarter
Apr 10
New
Apr 18
First Quarter

Hourly Weather History & Observations

Time (EDT) Temp. Dew Point Humidity Pressure Visibility Wind Dir Wind Speed Gust Speed Precip Events Conditions
12:53 AM 66.9 °F 64.9 °F 93% 29.99 in 10.0 mi West 4.6 mph - N/A   Mostly Cloudy
1:53 AM 68.0 °F 66.9 °F 96% 29.98 in 10.0 mi North 3.5 mph - N/A   Overcast
2:53 AM 66.9 °F 66.0 °F 97% 29.95 in 10.0 mi NE 3.5 mph - N/A   Clear
3:53 AM 64.9 °F 64.0 °F 97% 29.93 in 10.0 mi NE 3.5 mph - N/A   Clear
4:53 AM 66.9 °F 66.0 °F 97% 29.92 in 10.0 mi NE 4.6 mph - N/A   Overcast
5:53 AM 68.0 °F 66.9 °F 96% 29.94 in 10.0 mi North 3.5 mph - N/A   Overcast
6:53 AM 69.1 °F 66.0 °F 90% 29.94 in 10.0 mi NE 3.5 mph - N/A   Mostly Cloudy
7:53 AM 70.0 °F 66.0 °F 87% 29.95 in 10.0 mi East 4.6 mph - N/A   Scattered Clouds
8:41 AM 71.6 °F 66.2 °F 83% 29.96 in 10.0 mi East 4.6 mph - N/A   Mostly Cloudy
8:53 AM 71.1 °F 66.0 °F 84% 29.95 in 10.0 mi East 6.9 mph - N/A   Mostly Cloudy
9:53 AM 72.0 °F 66.9 °F 84% 29.96 in 10.0 mi ESE 5.8 mph - N/A   Mostly Cloudy
10:00 AM 71.6 °F 66.2 °F 83% 29.95 in 10.0 mi ESE 5.8 mph - N/A   Mostly Cloudy
10:53 AM 73.0 °F 66.9 °F 81% 29.96 in 10.0 mi SE 3.5 mph - N/A   Mostly Cloudy
11:53 AM 75.9 °F 66.9 °F 74% 29.96 in 10.0 mi South 10.4 mph - N/A   Mostly Cloudy
12:00 PM 75.2 °F 66.2 °F 73% 29.96 in 10.0 mi South 8.1 mph - N/A   Mostly Cloudy
12:53 PM 77.0 °F 64.0 °F 64% 29.93 in 10.0 mi SSW 8.1 mph - N/A   Mostly Cloudy
1:53 PM 78.1 °F 63.0 °F 60% 29.88 in 10.0 mi SSW 8.1 mph - N/A   Mostly Cloudy
2:00 PM 78.8 °F 62.6 °F 57% 29.88 in 10.0 mi SSW 10.4 mph - N/A   Clear
2:53 PM 78.1 °F 64.0 °F 62% 29.86 in 10.0 mi WSW 6.9 mph - N/A   Scattered Clouds
3:53 PM 77.0 °F 64.0 °F 64% 29.82 in 10.0 mi West 5.8 mph - N/A   Partly Cloudy
4:53 PM 77.0 °F 62.1 °F 60% 29.81 in 10.0 mi WSW 9.2 mph - N/A   Scattered Clouds
5:53 PM 75.9 °F 61.0 °F 60% 29.81 in 10.0 mi WSW 13.8 mph - N/A   Scattered Clouds
6:53 PM 73.9 °F 60.1 °F 62% 29.81 in 10.0 mi WSW 8.1 mph - N/A   Clear
7:53 PM 72.0 °F 60.1 °F 66% 29.83 in 10.0 mi WSW 11.5 mph - N/A   Clear
8:53 PM 71.1 °F 57.9 °F 63% 29.86 in 10.0 mi West 15.0 mph 23.0 mph N/A   Scattered Clouds
9:53 PM 70.0 °F 59.0 °F 68% 29.87 in 10.0 mi West 16.1 mph 25.3 mph N/A   Overcast
10:25 PM 66.2 °F 57.2 °F 73% 29.86 in 10.0 mi NNW 18.4 mph - N/A   Mostly Cloudy
10:39 PM 64.4 °F 57.2 °F 77% 29.87 in 10.0 mi NNW 11.5 mph - N/A   Mostly Cloudy
10:53 PM 64.0 °F 57.0 °F 78% 29.88 in 10.0 mi NNW 10.4 mph - N/A   Overcast
11:53 PM 62.1 °F 55.9 °F 80% 29.85 in 10.0 mi NW 3.5 mph - N/A   Clear